Location: Iesi
(43.5167°N, 13.2333°E)
Time: 02:23:06
(UTC+00:00)

Terra - Pass Details

Date: 08 August 2020
Orbit: 701 x 703 km, 98.2° (Epoch: 19 September)

Event Time Altitude Azimuth Distance (km) Brightness Sun altitude
Exits shadow 20:22:25 31° 97° (E) 1,227 2.6 -19.0°
Maximum altitude 20:23:32 35° 69° (ENE) 1,129 2.7 -19.2°
Drops below altitude 10° 20:27:51 10° 4° (N) 2,180 4.9 -19.7°
Sets 20:30:16 0° 356° (N) 3,103 6.0 -20.0°
